[[{"header":{"parameterUnit":"m.s-1","parameterCategory":2,"la1":30.2991,"la2":30.254,"lo1":-89.0895,"lo2":-89.0444,"dy":0.0017,"dx":0.0017,"nx":28,"ny":28,"refTime":"2024-04-21T03:00:00:Z","depth":"0","parameterNumber":2,"parameterNumberName":"U-component_of_CURRENTS"},"data":[0,0,0,0,0,0,0,0,0,0,0,0,0,0,0,0,0,0,0,0,0,0,0,0,0,0,0,0,0,0,0,0,0,0,0,0,0,0,0,0,0,0,0,0,0,0,0,0,0,0,0,0,0,0,0,0,0,0,0.163,0.1631,0,0.163,0.163,0.163,0.1614,0.1614,0.1614,0.1614,0.1574,0.1573,0.1572,0,0,0,0,0,0,0,0,0,0,0,0,0,0.1591,0.1592,0.163,0.1631,0.1631,0.163,0.163,0.163,0.1614,0.1614,0.1614,0.1614,0.1574,0.1573,0.1572,0,0,0,0,0,0,0,0,0,0,0,0,0,0.1599,0.1592,0.163,0.1625,0.1625,0.163,0.163,0.163,0.1614,0.1614,0.1614,0.1614,0.1575,0.1573,0.1572,0.1569,0,0,0.1568,0.1567,0,0,0,0,0,0,0,0,0.1598,0.16,0.1626,0.1625,0.1625,0.1624,0.1602,0.1608,0.1614,0.1616,0.1614,0.1613,0.1589,0.1587,0.1584,0.1567,0.1565,0.1568,0.1567,0.1567,0.1566,0,0,0,0,0,0,0,0.1598,0.16,0.1628,0.1626,0.1626,0.1614,0.1614,0.1603,0.1601,0.1615,0.1615,0.1619,0.1588,0.1585,0.1583,0.1565,0.1568,0.1567,0.1566,0.1565,0.1589,0.159,0,0,0,0,0,0,0.1605,0.1599,0.1628,0.1628,0.1614,0.1615,0.1616,0.1623,0.1602,0.16,0.1619,0.1618,0.1588,0.1584,0.1581,0.1611,0.1567,0.1565,0.1564,0.1587,0.1589,0.159,0,0,0,0,0,0,0.1604,0.1608,0.1628,0.1615,0.1617,0.1616,0.1624,0.1623,0.1625,0.1606,0.1602,0.1624,0.1587,0.1583,0.1588,0.1608,0.1565,0.1563,0.1585,0.1588,0.159,0.1648,0,0,0,0,0,0,0.1603,0.1607,0.1614,0.1616,0.1619,0.1639,0.1625,0.1623,0.1629,0.1628,0.1608,0.1604,0.1587,0.159,0.1587,0.1605,0.1562,0.1584,0.1586,0.1589,0.1644,0.1652,0.1658,0,0,0,0,0,0.1602,0.1613,0.1614,0.1618,0.1628,0.164,0.164,0.1636,0.163,0.1636,0.1629,0.1605,0.1605,0.159,0.1586,0.1604,0.1582,0.1586,0.1589,0.1641,0.165,0.1658,0,0,0,0,0,0,0.1598,0.1613,0.1614,0.1629,0.1639,0.1639,0.1645,0.1642,0.1642,0.164,0.1619,0.1615,0.1626,0.1611,0.1596,0.1622,0.1591,0.1594,0.1633,0.1641,0.1648,0.1649,0.1561,0,0,0,0,0,0.1602,0.1614,0.1626,0.1638,0.1645,0.1646,0.165,0.165,0.1651,0.165,0.1639,0.1633,0.1635,0.1635,0.1629,0.164,0.1651,0.1652,0.1659,0.1665,0.1665,0.1704,0.1715,0.1601,0.1601,0.1601,0,0,0.1603,0.1614,0.1619,0.1639,0.1644,0.166,0.1647,0.166,0.1674,0.1645,0.1659,0.1653,0.1644,0.166,0.1664,0.165,0.171,0.1669,0.1674,0.1671,0.1708,0.1719,0.1729,0.1603,0.1603,0.1602,0,0,0.1612,0.1623,0.1637,0.165,0.1667,0.1672,0.1679,0.1687,0.1691,0.1705,0.1695,0.1706,0.1699,0.1705,0.1705,0.1748,0.1743,0.1748,0.1784,0.1823,0.1833,0.1841,0.1896,0.1909,0.1754,0.1754,0.1754,0,0.1611,0.1633,0.1642,0.1662,0.1675,0.1681,0.1699,0.1709,0.1718,0.173,0.1717,0.1736,0.1723,0.1755,0.177,0.1763,0.179,0.1751,0.1832,0.1841,0.1848,0.1902,0.1916,0.1757,0.1757,0.1756,0.1756,0,0.1632,0.1652,0.1663,0.1691,0.1706,0.1724,0.1743,0.1761,0.1766,0.1775,0.1805,0.1799,0.1814,0.1815,0.1801,0.1854,0.186,0.1835,0.181,0.1863,0.1917,0.193,0.1762,0.1761,0.176,0.1759,0,0,0.1619,0.1667,0.167,0.1691,0.1723,0.1739,0.1773,0.1805,0.1833,0.1844,0.188,0.1889,0.1891,0.1892,0.1887,0.1914,0.1995,0.19,0.1901,0.1954,0.2103,0.215,0.2168,0.1988,0.199,0.1991,0.2129,0,0.1631,0.1671,0.1693,0.1733,0.1755,0.1781,0.1813,0.1844,0.1868,0.1905,0.1918,0.1944,0.1921,0.1934,0.1962,0.1983,0.2027,0.1961,0.2044,0.2047,0.208,0.2184,0.2156,0.228,0.2142,0.2144,0.2145,0,0.1641,0.1669,0.1705,0.1761,0.1773,0.1797,0.1854,0.1887,0.1943,0.1961,0.1998,0.2008,0.2061,0.2022,0.2109,0.2072,0.2095,0.2108,0.2113,0.214,0.2117,0.2199,0.2308,0.2256,0.2165,0.2163,0.2162,0,0.1623,0.1679,0.1707,0.1725,0.1784,0.1808,0.1845,0.19,0.1942,0.2002,0.2041,0.2091,0.2135,0.2167,0.221,0.2165,0.2308,0.2248,0.2318,0.2322,0.2306,0.2305,0.237,0.2312,0.2312,0.2312,0.2311,0,0.1624,0.1649,0.1702,0.1717,0.1755,0.1805,0.1852,0.1897,0.1974,0.2024,0.2072,0.2132,0.2173,0.2255,0.2262,0.2364,0.2364,0.2356,0.2371,0.2329,0.2329,0.2286,0.2244,0.2317,0.2316,0.2315,0.2314,0,0.1592,0.163,0.1663,0.1724,0.1743,0.1769,0.1851,0.1893,0.1976,0.2047,0.2074,0.2197,0.2312,0.2373,0.2451,0.2457,0.2473,0.2545,0.251,0.2517,0.2509,0.2471,0.2456,0.2378,0.2644,0.2646,0.2648,0,0.1578,0.1591,0.1646,0.1662,0.1686,0.1735,0.1769,0.1867,0.192,0.208,0.212,0.2278,0.2375,0.2562,0.2614,0.2699,0.2573,0.2699,0.2596,0.2544,0.2511,0.2371,0.2293,0.2608,0.2609,0.261,0.2611,0,0.154,0.1555,0.1578,0.1611,0.1644,0.1686,0.1753,0.1801,0.192,0.2007,0.215,0.2255,0.2479,0.259,0.2737,0.2763,0.2596,0.2725,0.2671,0.2508,0.2357,0.2277,0.2489,0.262,0.2619,0.2619,0.2618,0.2618,0.1497,0.1499,0.1525,0.1556,0.1591,0.1632,0.1652,0.1742,0.1833,0.1967,0.211,0.2265,0.2496,0.2722,0.2737,0.2778,0.2686,0.271,0.268,0.2551,0.2438,0.2693,0.2832,0.2833,0.2833,0.2833,0.2833,0,0.144,0.1452,0.1473,0.1501,0.1516,0.1564,0.1634,0.166,0.1736,0.1913,0.2044,0.2309,0.2477,0.2628,0.2786,0.274,0.2568,0.2675,0.2453,0.2383,0.2637,0.2598,0.269,0.269,0.269,0.269,0.269,0.269,0.1411,0.1405,0.1423,0.1422,0.1444,0.1453,0.1483,0.1539,0.1658,0.1832,0.2,0.2174,0.2486,0.274,0.277,0.27,0.2456,0.2408,0.2328,0.2508,0.2506,0.2504,0.2458,0.2519,0.2519,0.1983,0.1979,0.1976]},{"header":{"parameterUnit":"m.s-1","parameterCategory":2,"la1":30.2991,"la2":30.254,"lo1":-89.0895,"lo2":-89.0444,"dy":0.0017,"dx":0.0017,"nx":28,"ny":28,"refTime":"2024-04-21T03:00:00:Z","depth":"0","parameterNumber":3,"parameterNumberName":"V-component_of_CURRENTS"},"data":[0,0,0,0,0,0,0,0,0,0,0,0,0,0,0,0,0,0,0,0,0,0,0,0,0,0,0,0,0,0,0,0,0,0,0,0,0,0,0,0,0,0,0,0,0,0,0,0,0,0,0,0,0,0,0,0,0,0,-0.0458,-0.0459,0,-0.054,-0.0541,-0.0542,-0.0594,-0.0594,-0.0595,-0.0595,-0.0682,-0.0685,-0.0687,0,0,0,0,0,0,0,0,0,0,0,0,0,-0.0379,-0.038,-0.0458,-0.0459,-0.046,-0.054,-0.0542,-0.0543,-0.0594,-0.0594,-0.0595,-0.0595,-0.0682,-0.0684,-0.0687,0,0,0,0,0,0,0,0,0,0,0,0,0,-0.0433,-0.038,-0.0458,-0.0495,-0.0499,-0.054,-0.0542,-0.0543,-0.0594,-0.0594,-0.0595,-0.0595,-0.0681,-0.0684,-0.0687,-0.0699,0,0,-0.0697,-0.0698,0,0,0,0,0,0,0,0,-0.043,-0.0436,-0.0488,-0.0492,-0.0497,-0.0557,-0.0546,-0.0595,-0.0594,-0.0558,-0.0595,-0.0595,-0.064,-0.0647,-0.0662,-0.0703,-0.0707,-0.0697,-0.0699,-0.07,-0.0701,0,0,0,0,0,0,0,-0.0426,-0.0433,-0.0491,-0.0489,-0.0495,-0.0519,-0.0527,-0.0556,-0.0597,-0.0562,-0.0565,-0.0574,-0.0643,-0.0659,-0.0665,-0.0708,-0.0697,-0.07,-0.0702,-0.0703,-0.0778,-0.0778,0,0,0,0,0,0,-0.0413,-0.0429,-0.0488,-0.0493,-0.0463,-0.052,-0.0529,-0.0538,-0.0596,-0.0606,-0.0573,-0.0576,-0.0653,-0.0661,-0.0668,-0.0694,-0.07,-0.0703,-0.0705,-0.0778,-0.0778,-0.0778,0,0,0,0,0,0,-0.0411,-0.0417,-0.0485,-0.0463,-0.0473,-0.0521,-0.0531,-0.0539,-0.0556,-0.0605,-0.0615,-0.0581,-0.0654,-0.0663,-0.0692,-0.0697,-0.0705,-0.0708,-0.0778,-0.0778,-0.0778,-0.074,0,0,0,0,0,0,-0.0408,-0.0416,-0.0416,-0.0462,-0.0474,-0.0504,-0.053,-0.0541,-0.0561,-0.0565,-0.0615,-0.0624,-0.0655,-0.0687,-0.0695,-0.0701,-0.071,-0.0777,-0.0778,-0.0778,-0.0741,-0.0738,-0.0736,0,0,0,0,0,-0.0405,-0.0402,-0.0415,-0.0423,-0.0473,-0.0504,-0.0512,-0.0548,-0.056,-0.0565,-0.06,-0.0622,-0.0694,-0.069,-0.0699,-0.0706,-0.0777,-0.0778,-0.0778,-0.0742,-0.0739,-0.0736,0,0,0,0,0,0,-0.0366,-0.0409,-0.0424,-0.0434,-0.0464,-0.0512,-0.0519,-0.0543,-0.0574,-0.0577,-0.0623,-0.0634,-0.0661,-0.0687,-0.0681,-0.0728,-0.074,-0.0742,-0.0709,-0.0707,-0.0705,-0.0676,-0.0713,0,0,0,0,0,-0.0357,-0.0366,-0.041,-0.0416,-0.0429,-0.0472,-0.0488,-0.0512,-0.0547,-0.0561,-0.0598,-0.0636,-0.0669,-0.0689,-0.072,-0.0745,-0.0754,-0.0756,-0.0754,-0.0752,-0.0735,-0.0765,-0.0764,-0.0779,-0.0779,-0.0779,0,0,-0.0343,-0.0367,-0.0372,-0.0408,-0.0433,-0.0446,-0.0483,-0.0502,-0.0514,-0.0565,-0.0589,-0.0627,-0.0673,-0.0702,-0.0717,-0.0725,-0.0751,-0.0752,-0.075,-0.0734,-0.0765,-0.0763,-0.0762,-0.0779,-0.0779,-0.0779,0,0,-0.0315,-0.034,-0.0338,-0.036,-0.0394,-0.0423,-0.0425,-0.0472,-0.0494,-0.0521,-0.0562,-0.0597,-0.0649,-0.0684,-0.0708,-0.0711,-0.0735,-0.0728,-0.0698,-0.0728,-0.0726,-0.0725,-0.0721,-0.072,-0.0731,-0.073,-0.073,0,-0.0294,-0.03,-0.0341,-0.0344,-0.0353,-0.0408,-0.0403,-0.0437,-0.0486,-0.0497,-0.052,-0.0593,-0.0638,-0.0672,-0.068,-0.0705,-0.0715,-0.0705,-0.0724,-0.0723,-0.0723,-0.0719,-0.0718,-0.0729,-0.0729,-0.0729,-0.0729,0,-0.0269,-0.0272,-0.0271,-0.0294,-0.031,-0.0315,-0.0362,-0.0382,-0.0415,-0.0448,-0.0485,-0.0548,-0.0587,-0.0619,-0.0653,-0.0677,-0.0681,-0.0714,-0.0726,-0.0719,-0.0716,-0.0715,-0.0726,-0.0727,-0.0727,-0.0728,0,0,-0.0223,-0.0247,-0.0246,-0.0241,-0.0281,-0.0288,-0.0307,-0.0335,-0.0333,-0.0399,-0.0401,-0.0483,-0.0516,-0.0544,-0.06,-0.0636,-0.0649,-0.0672,-0.0675,-0.0659,-0.0689,-0.067,-0.0669,-0.0691,-0.0691,-0.0691,-0.0683,0,-0.0187,-0.0171,-0.0198,-0.0182,-0.0176,-0.0221,-0.0227,-0.026,-0.0295,-0.0313,-0.0391,-0.0416,-0.049,-0.0505,-0.0556,-0.0622,-0.065,-0.0646,-0.0706,-0.0706,-0.0685,-0.0669,-0.0664,-0.0655,-0.0683,-0.0683,-0.0683,0,-0.0154,-0.0145,-0.0117,-0.0114,-0.0114,-0.0112,-0.0117,-0.0132,-0.0179,-0.0206,-0.0256,-0.0309,-0.0372,-0.0435,-0.0538,-0.0534,-0.06,-0.0657,-0.0659,-0.0651,-0.0688,-0.0672,-0.0654,-0.0815,-0.0683,-0.0683,-0.0683,0,-0.0095,-0.0088,-0.0058,-0.0059,-0.0068,-0.0055,-0.0061,-0.0091,-0.0082,-0.0132,-0.0124,-0.0219,-0.0242,-0.0355,-0.0474,-0.0506,-0.0573,-0.0633,-0.0674,-0.0672,-0.0682,-0.0681,-0.0819,-0.0694,-0.0694,-0.0694,-0.0694,0,-0.0047,-0.0023,-0.0023,-0.0005,0.0041,0.0012,0.0058,0.0029,0.0023,0.0052,-0.0057,-0.0044,-0.0225,-0.0289,-0.0423,-0.0529,-0.0532,-0.0648,-0.0669,-0.0667,-0.0665,-0.0817,-0.0894,-0.0694,-0.0694,-0.0694,-0.0694,0,0.0009,0.0006,0.0045,0.006,0.007,0.0104,0.0141,0.0175,0.0151,0.0188,0.0182,0.0101,0.0017,-0.0147,-0.0305,-0.0434,-0.0637,-0.0594,-0.0559,-0.0576,-0.0776,-0.085,-0.0976,-0.1049,-0.0638,-0.0638,-0.0637,0,0.004,0.0066,0.0104,0.014,0.0152,0.0201,0.0242,0.0235,0.0282,0.0287,0.0323,0.0259,0.0233,0.0019,-0.0222,-0.0424,-0.0594,-0.0556,-0.0629,-0.0769,-0.0868,-0.0942,-0.1,-0.0624,-0.0623,-0.0623,-0.0622,0,0.0105,0.0118,0.0154,0.0229,0.0282,0.0343,0.0407,0.0467,0.0473,0.0511,0.0564,0.0549,0.0342,0.0146,-0.0139,-0.0309,-0.0667,-0.0552,-0.0725,-0.0877,-0.094,-0.1025,-0.0629,-0.0619,-0.0619,-0.0619,-0.062,-0.062,0.016,0.0204,0.0258,0.0331,0.0393,0.0488,0.0566,0.0638,0.0731,0.0808,0.077,0.078,0.0461,0.0073,-0.0168,-0.0619,-0.0637,-0.0776,-0.0852,-0.0913,-0.0996,-0.0565,-0.0567,-0.0568,-0.0568,-0.0568,-0.0568,0,0.0235,0.0286,0.0359,0.0452,0.0541,0.0553,0.0681,0.0769,0.0901,0.0962,0.1009,0.087,0.0478,0.0059,-0.0533,-0.0863,-0.1019,-0.1058,-0.1193,-0.1239,-0.0881,-0.0895,-0.0936,-0.0936,-0.0935,-0.0935,-0.0935,-0.0935,0.0279,0.0373,0.0412,0.0573,0.0639,0.0777,0.0862,0.0976,0.1061,0.1172,0.1188,0.1155,0.0826,-0.0255,-0.102,-0.1204,-0.1457,-0.1496,-0.1621,-0.1414,-0.1396,-0.1378,-0.1414,-0.1562,-0.1562,-0.1968,-0.1972,-0.1975]}],[{"header":{"parameterUnit":"m.s-1","parameterCategory":2,"la1":30.2991,"la2":30.254,"lo1":-89.0895,"lo2":-89.0444,"dy":0.0017,"dx":0.0017,"nx":28,"ny":28,"refTime":"2024-04-21T03:00:00:Z","depth":"2","parameterNumber":2,"parameterNumberName":"U-component_of_CURRENTS"},"data":[0,0,0,0,0,0,0,0,0,0,0,0,0,0,0,0,0,0,0,0,0,0,0,0,0,0,0,0,0,0,0,0,0,0,0,0,0,0,0,0,0,0,0,0,0,0,0,0,0,0,0,0,0,0,0,0,0,0,0.1585,0.1585,0,0.1595,0.1595,0.1595,0.1587,0.1587,0.1587,0.1587,0.157,0.157,0.1569,0,0,0,0,0,0,0,0,0,0,0,0,0,0.1535,0.1536,0.1585,0.1585,0.1585,0.1595,0.1595,0.1595,0.1587,0.1587,0.1587,0.1587,0.157,0.157,0.1569,0,0,0,0,0,0,0,0,0,0,0,0,0,0.1551,0.1537,0.1585,0.1584,0.1584,0.1595,0.1595,0.1595,0.1587,0.1587,0.1587,0.1586,0.157,0.157,0.1569,0.1572,0,0,0.1568,0.1568,0,0,0,0,0,0,0,0,0.155,0.1552,0.1584,0.1584,0.1584,0.1591,0.1571,0.1586,0.1587,0.1584,0.1587,0.1586,0.1575,0.1575,0.1575,0.1571,0.1571,0.1568,0.1568,0.1567,0.1567,0,0,0,0,0,0,0,0.1549,0.1552,0.1587,0.1584,0.1584,0.1575,0.1577,0.1574,0.158,0.1585,0.1585,0.1588,0.1575,0.1576,0.1575,0.157,0.1568,0.1567,0.1567,0.1567,0.1606,0.1607,0,0,0,0,0,0,0.1553,0.1551,0.1587,0.1588,0.1568,0.1576,0.1578,0.1588,0.158,0.158,0.1588,0.1588,0.1577,0.1575,0.1574,0.161,0.1567,0.1567,0.1567,0.1605,0.1606,0.1608,0,0,0,0,0,0,0.1552,0.1556,0.1586,0.157,0.1574,0.1578,0.1588,0.1588,0.1595,0.1584,0.1582,0.1596,0.1576,0.1575,0.1587,0.1608,0.1567,0.1566,0.1603,0.1605,0.1607,0.1661,0,0,0,0,0,0,0.155,0.1556,0.1565,0.1571,0.1575,0.1601,0.1588,0.1588,0.1598,0.1597,0.159,0.1587,0.1576,0.1587,0.1586,0.1607,0.1566,0.1602,0.1604,0.1607,0.1658,0.1665,0.1671,0,0,0,0,0,0.1548,0.1558,0.1566,0.157,0.1588,0.1602,0.1603,0.1603,0.1599,0.1607,0.1606,0.1588,0.1602,0.1588,0.1586,0.1607,0.1601,0.1604,0.1606,0.1655,0.1663,0.167,0,0,0,0,0,0,0.1538,0.1559,0.1567,0.1582,0.1598,0.1601,0.1608,0.161,0.1616,0.1616,0.1602,0.1601,0.1618,0.1608,0.1593,0.1627,0.1599,0.1602,0.1637,0.1644,0.1651,0.1652,0.1566,0,0,0,0,0,0.1544,0.1558,0.1576,0.159,0.1599,0.1607,0.1613,0.1617,0.1622,0.1624,0.1621,0.1621,0.1629,0.1633,0.1633,0.165,0.1659,0.1664,0.1671,0.1676,0.1677,0.1714,0.1724,0.1617,0.1617,0.1617,0,0,0.1544,0.1556,0.1565,0.1589,0.1599,0.1619,0.1609,0.1625,0.1642,0.1621,0.1641,0.1641,0.1638,0.166,0.1667,0.1654,0.1716,0.168,0.1685,0.1682,0.1718,0.1729,0.1738,0.1619,0.1619,0.1619,0,0,0.1549,0.1565,0.1581,0.1597,0.1619,0.1629,0.1637,0.1651,0.166,0.1681,0.1675,0.1691,0.1695,0.1704,0.1708,0.1751,0.1747,0.1752,0.1787,0.1823,0.1832,0.184,0.1885,0.1896,0.1757,0.1758,0.1758,0,0.1548,0.1573,0.1587,0.1606,0.1622,0.1637,0.1659,0.1673,0.169,0.1704,0.1693,0.1723,0.1717,0.1754,0.1769,0.1765,0.1788,0.1756,0.1832,0.184,0.1847,0.189,0.1902,0.176,0.176,0.176,0.176,0,0.1566,0.159,0.1599,0.1634,0.1653,0.1673,0.17,0.1722,0.1734,0.1747,0.1783,0.1784,0.1804,0.1808,0.1799,0.1852,0.1854,0.1834,0.1812,0.1861,0.1904,0.1915,0.1765,0.1764,0.1763,0.1762,0,0,0.1551,0.1603,0.1606,0.1631,0.167,0.1688,0.1727,0.1767,0.1797,0.1815,0.1854,0.187,0.1875,0.188,0.188,0.1908,0.1982,0.1896,0.1897,0.194,0.2078,0.2061,0.2072,0.1978,0.198,0.1982,0.2095,0,0.1562,0.1601,0.1627,0.1672,0.1697,0.1729,0.1764,0.1803,0.1833,0.1874,0.1893,0.1925,0.1904,0.1921,0.1949,0.1972,0.2012,0.1954,0.2024,0.2026,0.2004,0.2084,0.1939,0.2026,0.2106,0.2108,0.2109,0,0.157,0.1598,0.1638,0.1698,0.1713,0.1741,0.1806,0.1842,0.1904,0.1927,0.1968,0.1984,0.2037,0.2004,0.2083,0.2051,0.2072,0.2084,0.2089,0.2057,0.203,0.1985,0.2043,0.2128,0.2127,0.2125,0.2124,0,0.1548,0.1607,0.1639,0.1657,0.1724,0.1752,0.1792,0.1854,0.19,0.1967,0.201,0.206,0.2107,0.2135,0.2168,0.2135,0.2252,0.2209,0.2218,0.2217,0.2099,0.2084,0.2268,0.2268,0.2268,0.2267,0.2267,0,0.1545,0.1572,0.1632,0.1648,0.1693,0.1747,0.1799,0.1849,0.1932,0.1986,0.2039,0.2095,0.2143,0.221,0.2213,0.2268,0.2298,0.2246,0.2251,0.2116,0.2102,0.2181,0.2169,0.2272,0.2271,0.227,0.2269,0,0.1512,0.1551,0.1591,0.1659,0.1681,0.1713,0.1802,0.1846,0.1933,0.2011,0.2041,0.2156,0.224,0.2291,0.2356,0.2342,0.2376,0.2383,0.2229,0.2214,0.2304,0.2294,0.2408,0.2408,0.2409,0.2409,0.2409,0,0.1499,0.1514,0.158,0.1599,0.1629,0.1683,0.1721,0.1824,0.188,0.2034,0.2077,0.2206,0.2263,0.2383,0.2393,0.2431,0.2427,0.2306,0.2205,0.2328,0.2322,0.2311,0.2301,0.208,0.2077,0.2075,0.2074,0,0.1465,0.1486,0.1515,0.1555,0.1595,0.1642,0.1714,0.1759,0.1881,0.1958,0.2071,0.2137,0.228,0.2266,0.2341,0.2327,0.2284,0.2267,0.2454,0.2062,0.2026,0.2018,0.2017,0.2056,0.2058,0.2059,0.206,0.2061,0.143,0.1437,0.1471,0.1508,0.1549,0.159,0.1605,0.1688,0.1763,0.1866,0.1983,0.2041,0.2119,0.2159,0.2125,0.2114,0.2244,0.214,0.2142,0.2148,0.2085,0.2052,0.2075,0.2077,0.2079,0.208,0.2081,0,0.138,0.1395,0.1424,0.146,0.1479,0.1531,0.159,0.1591,0.1631,0.1761,0.1839,0.1764,0.1808,0.1876,0.1848,0.1872,0.1815,0.1789,0.1695,0.1717,0.1736,0.1647,0.1523,0.1521,0.1518,0.1516,0,0,0.1355,0.1353,0.1372,0.138,0.1409,0.1414,0.1429,0.1434,0.1501,0.1519,0.1563,0.1742,0.1847,0.1651,0.1656,0.1583,0.1623,0.153,0.1992,0.1906,0.192,0.1972,0.1866,0,0,0,0,0]},{"header":{"parameterUnit":"m.s-1","parameterCategory":2,"la1":30.2991,"la2":30.254,"lo1":-89.0895,"lo2":-89.0444,"dy":0.0017,"dx":0.0017,"nx":28,"ny":28,"refTime":"2024-04-21T03:00:00:Z","depth":"2","parameterNumber":3,"parameterNumberName":"V-component_of_CURRENTS"},"data":[0,0,0,0,0,0,0,0,0,0,0,0,0,0,0,0,0,0,0,0,0,0,0,0,0,0,0,0,0,0,0,0,0,0,0,0,0,0,0,0,0,0,0,0,0,0,0,0,0,0,0,0,0,0,0,0,0,0,-0.0103,-0.0104,0,-0.0178,-0.018,-0.0181,-0.0236,-0.0236,-0.0236,-0.0236,-0.0314,-0.0316,-0.0318,0,0,0,0,0,0,0,0,0,0,0,0,0,-0.0041,-0.0042,-0.0103,-0.0104,-0.0105,-0.0178,-0.018,-0.0181,-0.0236,-0.0236,-0.0236,-0.0236,-0.0314,-0.0316,-0.0318,0,0,0,0,0,0,0,0,0,0,0,0,0,-0.0091,-0.0042,-0.0103,-0.0138,-0.0141,-0.0178,-0.018,-0.0181,-0.0236,-0.0236,-0.0236,-0.0236,-0.0313,-0.0316,-0.0319,-0.0333,0,0,-0.0328,-0.0329,0,0,0,0,0,0,0,0,-0.0088,-0.0094,-0.0132,-0.0136,-0.014,-0.0195,-0.0186,-0.0231,-0.0236,-0.0204,-0.0236,-0.0237,-0.0272,-0.0278,-0.0297,-0.0337,-0.034,-0.0328,-0.033,-0.0331,-0.0332,0,0,0,0,0,0,0,-0.0084,-0.0091,-0.0137,-0.0133,-0.0137,-0.0161,-0.0168,-0.0195,-0.0239,-0.0207,-0.021,-0.0212,-0.0274,-0.0295,-0.03,-0.0342,-0.0328,-0.033,-0.0332,-0.0333,-0.0413,-0.0414,0,0,0,0,0,0,-0.0065,-0.0088,-0.0135,-0.0139,-0.0109,-0.0161,-0.017,-0.018,-0.0239,-0.0247,-0.0212,-0.0214,-0.0289,-0.0296,-0.0303,-0.0331,-0.0331,-0.0334,-0.0335,-0.0413,-0.0413,-0.0414,0,0,0,0,0,0,-0.0064,-0.0069,-0.0132,-0.0111,-0.012,-0.0162,-0.0173,-0.0181,-0.0207,-0.0242,-0.0251,-0.0229,-0.029,-0.0298,-0.0327,-0.0334,-0.0335,-0.0338,-0.0413,-0.0413,-0.0414,-0.0384,0,0,0,0,0,0,-0.0062,-0.0069,-0.0072,-0.011,-0.0121,-0.0151,-0.0173,-0.0182,-0.0206,-0.021,-0.0259,-0.0267,-0.0291,-0.0323,-0.033,-0.0338,-0.034,-0.0412,-0.0413,-0.0414,-0.0384,-0.0383,-0.0382,0,0,0,0,0,-0.006,-0.0052,-0.0073,-0.0078,-0.0124,-0.0151,-0.0159,-0.0191,-0.0206,-0.0216,-0.0248,-0.0265,-0.0332,-0.0325,-0.0334,-0.0343,-0.0412,-0.0413,-0.0413,-0.0385,-0.0383,-0.0382,0,0,0,0,0,0,-0.0026,-0.0058,-0.0081,-0.0085,-0.0117,-0.0158,-0.0165,-0.0192,-0.0227,-0.0231,-0.0269,-0.0278,-0.0305,-0.0329,-0.032,-0.0369,-0.0376,-0.0378,-0.0351,-0.035,-0.0349,-0.032,-0.0343,0,0,0,0,0,-0.002,-0.0026,-0.0066,-0.0071,-0.0085,-0.013,-0.0145,-0.017,-0.0202,-0.0219,-0.025,-0.0285,-0.0315,-0.0335,-0.0361,-0.0389,-0.04,-0.0402,-0.0401,-0.04,-0.0383,-0.0416,-0.0416,-0.0416,-0.0416,-0.0416,0,0,-0.0013,-0.0026,-0.0034,-0.0065,-0.0094,-0.0106,-0.0141,-0.0162,-0.0175,-0.022,-0.0245,-0.0279,-0.032,-0.0348,-0.0363,-0.0371,-0.0405,-0.0401,-0.04,-0.0382,-0.0417,-0.0417,-0.0417,-0.0417,-0.0417,-0.0417,0,0,0.0013,-0.0011,-0.0009,-0.003,-0.0062,-0.0088,-0.0093,-0.0138,-0.0162,-0.0191,-0.0225,-0.0256,-0.0308,-0.0335,-0.0357,-0.0365,-0.0393,-0.0387,-0.0365,-0.0398,-0.0398,-0.0398,-0.0405,-0.0406,-0.0393,-0.0393,-0.0393,0,0.0024,0.0021,-0.0013,-0.0014,-0.0023,-0.0077,-0.0078,-0.011,-0.0158,-0.0171,-0.0191,-0.0261,-0.0296,-0.0329,-0.0337,-0.0361,-0.0381,-0.0366,-0.0395,-0.0396,-0.0396,-0.0404,-0.0405,-0.0391,-0.0391,-0.0392,-0.0392,0,0.0047,0.0043,0.0046,0.0026,0.0009,0.0002,-0.0042,-0.0063,-0.0097,-0.0129,-0.0167,-0.0221,-0.0259,-0.0287,-0.0317,-0.0345,-0.0357,-0.0384,-0.0394,-0.0394,-0.0403,-0.0405,-0.0389,-0.039,-0.039,-0.0391,0,0,0.0076,0.0065,0.0065,0.0067,0.0032,0.0024,0.0005,-0.0025,-0.0028,-0.0089,-0.0099,-0.0167,-0.02,-0.0226,-0.0277,-0.0314,-0.0338,-0.0353,-0.0356,-0.0351,-0.04,-0.0399,-0.0401,-0.0382,-0.0383,-0.0383,-0.0402,0,0.0102,0.0123,0.0104,0.0115,0.0119,0.0078,0.0069,0.0036,0.0,-0.0022,-0.0091,-0.0119,-0.0179,-0.0199,-0.0248,-0.031,-0.0343,-0.0329,-0.0408,-0.0409,-0.0402,-0.0404,-0.0388,-0.0404,-0.0404,-0.0404,-0.0404,0,0.0129,0.0143,0.0163,0.017,0.0167,0.0165,0.0152,0.0137,0.009,0.006,0.0011,-0.0039,-0.0098,-0.0151,-0.0253,-0.0247,-0.0315,-0.0368,-0.0371,-0.0377,-0.0412,-0.0407,-0.0407,-0.0408,-0.0408,-0.0407,-0.0407,0,0.0174,0.0186,0.021,0.0209,0.0202,0.0205,0.0198,0.0165,0.0169,0.0115,0.0118,0.0027,-0.0001,-0.0108,-0.0216,-0.0241,-0.0322,-0.0369,-0.0427,-0.0427,-0.0429,-0.0429,-0.0435,-0.0435,-0.0435,-0.0435,-0.0435,0,0.0216,0.0234,0.0236,0.0249,0.0282,0.0255,0.0285,0.0258,0.0246,0.0266,0.0167,0.017,0.0006,-0.0062,-0.0183,-0.0297,-0.0296,-0.041,-0.0434,-0.0418,-0.0417,-0.0435,-0.0435,-0.0436,-0.0436,-0.0435,-0.0435,0,0.0256,0.0256,0.0288,0.0298,0.0304,0.0326,0.0352,0.0378,0.035,0.0377,0.0368,0.0285,0.019,0.004,-0.0116,-0.023,-0.0352,-0.0394,-0.0349,-0.0369,-0.0444,-0.0442,-0.0464,-0.0464,-0.0464,-0.0464,-0.0464,0,0.0277,0.0298,0.033,0.0359,0.0365,0.04,0.043,0.0423,0.0463,0.0457,0.0485,0.0404,0.0351,0.013,-0.0087,-0.0285,-0.0323,-0.0392,-0.0442,-0.0426,-0.0448,-0.0446,-0.0444,-0.043,-0.043,-0.043,-0.043,0,0.0323,0.0331,0.0361,0.0424,0.0465,0.052,0.0569,0.0619,0.0624,0.0642,0.0661,0.0618,0.0402,0.0196,-0.0075,-0.0216,-0.0365,-0.0395,-0.0393,-0.0424,-0.0396,-0.0417,-0.0416,-0.0429,-0.0429,-0.0429,-0.0429,-0.0429,0.0356,0.0393,0.0438,0.0499,0.0554,0.0636,0.0698,0.0752,0.0816,0.0853,0.0805,0.0745,0.0501,0.0153,-0.009,-0.0345,-0.035,-0.0442,-0.0442,-0.0442,-0.0434,-0.0408,-0.0439,-0.0439,-0.0439,-0.044,-0.044,0,0.0403,0.045,0.0513,0.0594,0.0673,0.0687,0.0792,0.0848,0.0929,0.095,0.0947,0.0731,0.0483,0.0213,-0.0166,-0.0398,-0.0431,-0.0464,-0.0456,-0.0455,-0.0455,-0.0448,-0.0457,-0.0458,-0.0458,-0.0459,0,0,0.0429,0.0509,0.0547,0.0687,0.0748,0.0863,0.093,0.0983,0.1023,0.1041,0.101,0.0921,0.0579,0.0313,-0.0013,-0.023,-0.0288,-0.0275,-0.0238,-0.019,-0.0187,-0.0422,-0.0408,0,0,0,0,0]}],[{"header":{"parameterUnit":"m.s-1","parameterCategory":2,"la1":30.2991,"la2":30.254,"lo1":-89.0895,"lo2":-89.0444,"dy":0.0017,"dx":0.0017,"nx":28,"ny":28,"refTime":"2024-04-21T03:00:00:Z","depth":"4","parameterNumber":2,"parameterNumberName":"U-component_of_CURRENTS"},"data":[0,0,0,0,0,0,0,0,0,0,0,0,0,0,0,0,0,0,0,0,0,0,0,0,0,0,0,0,0,0,0,0,0,0,0,0,0,0,0,0,0,0,0,0,0,0,0,0,0,0,0,0,0,0,0,0,0,0,0.0877,0.0878,0,0.0962,0.0963,0.0964,0.1021,0.1022,0.1022,0.1023,0.1079,0.108,0.108,0,0,0,0,0,0,0,0,0,0,0,0,0,0.0786,0.0787,0.0877,0.0878,0.088,0.0962,0.0963,0.0964,0.1021,0.1022,0.1023,0.1023,0.1078,0.1079,0.1081,0,0,0,0,0,0,0,0,0,0,0,0,0,0.0842,0.0788,0.0877,0.0919,0.0924,0.0962,0.0963,0.0964,0.1021,0.1022,0.1023,0.1024,0.1078,0.1079,0.1081,0.1073,0,0,0.1085,0.1086,0,0,0,0,0,0,0,0,0.0839,0.0845,0.0912,0.0916,0.0922,0.0983,0.0951,0.1,0.1021,0.0983,0.1023,0.1024,0.1044,0.1049,0.1061,0.1076,0.1078,0.1085,0.1086,0.1087,0.1087,0,0,0,0,0,0,0,0.0835,0.0842,0.0909,0.0913,0.0919,0.0941,0.095,0.0961,0.1006,0.0986,0.0991,0.1002,0.1047,0.106,0.1063,0.1079,0.1085,0.1087,0.1087,0.1088,0.1167,0.1168,0,0,0,0,0,0,0.0826,0.0838,0.0907,0.0912,0.0883,0.0942,0.0952,0.0962,0.1007,0.1015,0.1002,0.1005,0.1057,0.1061,0.1065,0.1131,0.1087,0.1088,0.1089,0.1166,0.1167,0.1169,0,0,0,0,0,0,0.0823,0.0831,0.0903,0.0878,0.0889,0.0943,0.0954,0.0963,0.1003,0.1019,0.1027,0.1035,0.1057,0.1063,0.1101,0.1131,0.1089,0.109,0.1165,0.1166,0.1168,0.1217,0,0,0,0,0,0,0.082,0.0829,0.0842,0.0878,0.0891,0.0941,0.0953,0.0964,0.1008,0.1014,0.105,0.1055,0.1059,0.1099,0.1103,0.1132,0.1091,0.1163,0.1165,0.1168,0.1214,0.122,0.1226,0,0,0,0,0,0.0817,0.0831,0.0842,0.0851,0.0904,0.0942,0.0951,0.0991,0.1009,0.1029,0.1058,0.1055,0.1116,0.1101,0.1105,0.1136,0.1162,0.1165,0.1167,0.1211,0.1219,0.1226,0,0,0,0,0,0,0.0804,0.084,0.0853,0.0879,0.0914,0.0953,0.0982,0.1004,0.1044,0.1056,0.107,0.1076,0.1124,0.112,0.1103,0.1165,0.1139,0.1143,0.1171,0.1178,0.1184,0.1187,0.1092,0,0,0,0,0,0.0804,0.0823,0.0861,0.0885,0.0906,0.0947,0.0972,0.0997,0.1032,0.1053,0.1079,0.1106,0.1133,0.1149,0.117,0.1199,0.1198,0.1221,0.1227,0.1232,0.1238,0.1258,0.1266,0.1178,0.1178,0.1178,0,0,0.0804,0.0829,0.084,0.0883,0.0917,0.095,0.0965,0.1011,0.104,0.105,0.1106,0.1131,0.1147,0.1188,0.1208,0.1191,0.1259,0.1236,0.124,0.1243,0.1261,0.127,0.1278,0.118,0.1179,0.1179,0,0,0.0814,0.0841,0.0862,0.0893,0.0945,0.0969,0.0986,0.1038,0.1068,0.1117,0.1135,0.1179,0.1218,0.1239,0.1251,0.13,0.1294,0.131,0.1339,0.1359,0.1367,0.1373,0.1392,0.1399,0.1308,0.1308,0.1308,0,0.0814,0.0846,0.0875,0.0908,0.0938,0.0979,0.1012,0.1045,0.1102,0.1132,0.1142,0.1227,0.1242,0.1291,0.1314,0.1315,0.1324,0.1311,0.1367,0.1373,0.1379,0.1396,0.1404,0.1311,0.131,0.131,0.131,0,0.0837,0.0871,0.0892,0.0941,0.0974,0.1012,0.1056,0.1099,0.1141,0.1177,0.1249,0.1279,0.1329,0.1343,0.1347,0.1399,0.1393,0.1375,0.1347,0.1391,0.1406,0.1414,0.1315,0.1314,0.1313,0.1312,0,0,0.0813,0.0889,0.0899,0.0931,0.0996,0.1026,0.1079,0.1139,0.1185,0.1244,0.1303,0.1362,0.1392,0.1408,0.1422,0.144,0.1494,0.143,0.143,0.1447,0.1543,0.1471,0.1472,0.1487,0.1489,0.149,0.1541,0,0.0825,0.088,0.0918,0.0979,0.1013,0.1067,0.1114,0.1173,0.1229,0.1295,0.1341,0.1405,0.1411,0.1447,0.147,0.1494,0.1514,0.1482,0.1501,0.1501,0.143,0.1478,0.1494,0.1546,0.1548,0.1549,0.155,0,0.0833,0.0872,0.0927,0.1005,0.1028,0.107,0.1157,0.1206,0.1296,0.1344,0.1414,0.1452,0.1517,0.1501,0.1566,0.1548,0.1554,0.1559,0.1561,0.148,0.1442,0.1492,0.1563,0.1562,0.1561,0.156,0.1559,0,0.0798,0.0879,0.0923,0.095,0.1041,0.1085,0.114,0.1229,0.128,0.1383,0.1434,0.1508,0.156,0.1583,0.1616,0.1597,0.1669,0.1637,0.1575,0.157,0.1596,0.1589,0.1667,0.1667,0.1667,0.1667,0.1667,0,0.0787,0.0828,0.0917,0.0944,0.1009,0.1079,0.1159,0.1225,0.1319,0.1386,0.1464,0.1516,0.1584,0.1632,0.1638,0.1641,0.1691,0.1592,0.1581,0.1617,0.1611,0.1602,0.1594,0.1669,0.1668,0.1668,0.1668,0,0.0741,0.08,0.0859,0.0959,0.0997,0.1046,0.1164,0.1216,0.1318,0.1404,0.144,0.1544,0.1613,0.1662,0.1708,0.1669,0.1673,0.1654,0.1709,0.1698,0.1554,0.1548,0.1586,0.1584,0.1582,0.1581,0.158,0,0.0721,0.0748,0.0857,0.0898,0.0951,0.1036,0.1095,0.1207,0.1258,0.1408,0.1435,0.1542,0.1601,0.1617,0.1667,0.1683,0.1658,0.1649,0.1583,0.1562,0.1547,0.1544,0.154,0.1577,0.1576,0.1576,0.1575,0,0.0684,0.073,0.0778,0.0859,0.0928,0.0995,0.1085,0.1113,0.1243,0.1339,0.1408,0.1454,0.1529,0.1568,0.1601,0.16,0.165,0.163,0.1632,0.157,0.1551,0.1537,0.1536,0.1569,0.157,0.1571,0.1571,0,0.0656,0.0677,0.0748,0.0813,0.0888,0.0937,0.0994,0.1064,0.1129,0.1284,0.1303,0.1421,0.1515,0.1527,0.1553,0.1559,0.1526,0.1466,0.1476,0.1484,0.1427,0.1386,0.1354,0,0,0,0,0,0.0624,0.0647,0.0701,0.0768,0.0835,0.0884,0.0979,0.1036,0.115,0.1171,0.1236,0.1302,0.1364,0.1417,0.1402,0.15,0.1525,0.1475,0.1459,0.1536,0.1543,0.1485,0,0,0,0,0,0,0.0598,0.0649,0.0678,0.0715,0.0751,0.082,0.0878,0.0959,0.0974,0.1094,0.1131,0.1227,0.1297,0.136,0.1378,0.1395,0.1359,0.1546,0.1543,0.1532,0.1538,0.1544,0.1487,0,0,0,0,0]},{"header":{"parameterUnit":"m.s-1","parameterCategory":2,"la1":30.2991,"la2":30.254,"lo1":-89.0895,"lo2":-89.0444,"dy":0.0017,"dx":0.0017,"nx":28,"ny":28,"refTime":"2024-04-21T03:00:00:Z","depth":"4","parameterNumber":3,"parameterNumberName":"V-component_of_CURRENTS"},"data":[0,0,0,0,0,0,0,0,0,0,0,0,0,0,0,0,0,0,0,0,0,0,0,0,0,0,0,0,0,0,0,0,0,0,0,0,0,0,0,0,0,0,0,0,0,0,0,0,0,0,0,0,0,0,0,0,0,0,0.0253,0.0252,0,0.0204,0.0203,0.0203,0.0175,0.0175,0.0175,0.0175,0.0153,0.0152,0.0152,0,0,0,0,0,0,0,0,0,0,0,0,0,0.0284,0.0284,0.0253,0.0252,0.0252,0.0204,0.0203,0.0203,0.0175,0.0175,0.0175,0.0175,0.0153,0.0152,0.0152,0,0,0,0,0,0,0,0,0,0,0,0,0,0.0257,0.0284,0.0253,0.0232,0.0229,0.0204,0.0203,0.0203,0.0175,0.0175,0.0175,0.0175,0.0153,0.0152,0.0152,0.0152,0,0,0.015,0.0149,0,0,0,0,0,0,0,0,0.0259,0.0256,0.0236,0.0233,0.023,0.0195,0.0206,0.0187,0.0176,0.0197,0.0175,0.0175,0.0169,0.0167,0.0159,0.0151,0.015,0.0149,0.0149,0.0149,0.0149,0,0,0,0,0,0,0,0.0261,0.0258,0.0234,0.0235,0.0232,0.0211,0.0208,0.0202,0.0186,0.0195,0.0193,0.0186,0.0168,0.016,0.0158,0.0149,0.0149,0.0149,0.0148,0.0148,0.0124,0.0124,0,0,0,0,0,0,0.0268,0.026,0.0236,0.0233,0.0244,0.0211,0.0207,0.0207,0.0185,0.0181,0.0186,0.0185,0.0161,0.0159,0.0157,0.0154,0.0149,0.0148,0.0148,0.0125,0.0124,0.0124,0,0,0,0,0,0,0.0269,0.0266,0.0238,0.0244,0.0239,0.0211,0.0211,0.0206,0.0196,0.0178,0.0175,0.0181,0.0161,0.0158,0.0148,0.0154,0.0148,0.0147,0.0125,0.0124,0.0124,0.015,0,0,0,0,0,0,0.027,0.0267,0.027,0.0245,0.0239,0.0225,0.0211,0.0205,0.0192,0.019,0.0172,0.017,0.016,0.0149,0.0147,0.0153,0.0147,0.0125,0.0125,0.0124,0.015,0.0151,0.0152,0,0,0,0,0,0.0271,0.0276,0.0271,0.0268,0.0244,0.0225,0.022,0.0199,0.0192,0.0189,0.0174,0.017,0.0145,0.0148,0.0146,0.0152,0.0125,0.0125,0.0124,0.0149,0.0151,0.0152,0,0,0,0,0,0,0.0288,0.0273,0.0267,0.0266,0.0248,0.022,0.0215,0.0201,0.0186,0.0184,0.0168,0.0165,0.0155,0.0148,0.0152,0.0142,0.0134,0.0134,0.0154,0.0155,0.0156,0.0157,0.0146,0,0,0,0,0,0.0294,0.0297,0.0275,0.0274,0.0267,0.0242,0.0232,0.0217,0.0199,0.0192,0.0179,0.0165,0.0152,0.015,0.0136,0.0135,0.0111,0.0136,0.0137,0.0138,0.0136,0.0105,0.0103,0.0122,0.0122,0.0122,0,0,0.03,0.0292,0.0293,0.0278,0.0264,0.0257,0.0236,0.0221,0.0216,0.0193,0.0186,0.0167,0.015,0.0143,0.0139,0.014,0.0117,0.0137,0.0139,0.0136,0.0104,0.0102,0.0101,0.0122,0.0122,0.0122,0,0,0.0311,0.0307,0.0311,0.03,0.028,0.0267,0.0264,0.0238,0.0228,0.0217,0.0196,0.0178,0.0166,0.015,0.0142,0.0141,0.0119,0.014,0.0154,0.0125,0.0123,0.0121,0.0079,0.0073,0.0147,0.0147,0.0147,0,0.0316,0.0321,0.0308,0.0306,0.03,0.0274,0.0273,0.0261,0.0234,0.0226,0.0219,0.0181,0.0168,0.0152,0.0151,0.0145,0.0119,0.0154,0.0126,0.0124,0.0122,0.0079,0.0072,0.0149,0.0149,0.0148,0.0148,0,0.0327,0.033,0.0331,0.0327,0.0319,0.0313,0.0294,0.0284,0.0271,0.0254,0.0231,0.0204,0.0181,0.0176,0.0165,0.0145,0.0127,0.0127,0.0125,0.0122,0.0076,0.0069,0.015,0.015,0.015,0.0149,0,0,0.0335,0.034,0.0339,0.0343,0.0329,0.0323,0.0319,0.0304,0.0297,0.0272,0.0257,0.023,0.0208,0.0196,0.0176,0.0153,0.0113,0.0138,0.0136,0.01,0.0035,0.0024,0.0015,0.011,0.0109,0.0109,0.0007,0,0.0345,0.0356,0.0354,0.0362,0.0364,0.0347,0.0345,0.0328,0.0311,0.0291,0.0257,0.0236,0.0219,0.0205,0.0179,0.0129,0.0096,0.014,0.0041,0.0037,0.0032,0.0007,0.0106,0.0001,-0.0001,-0.0002,-0.0003,0,0.0353,0.0361,0.0375,0.0382,0.0381,0.0383,0.0373,0.0368,0.0336,0.0321,0.029,0.0257,0.0215,0.0203,0.0113,0.0142,0.0089,0.0049,0.0045,0.0021,0.0013,0.0007,-0.0017,-0.0016,-0.0014,-0.0014,-0.0013,0,0.0364,0.0374,0.0391,0.0392,0.0394,0.0397,0.0397,0.0376,0.0374,0.0337,0.0324,0.0267,0.0234,0.0166,0.0083,0.0096,-0.0022,-0.0015,-0.0081,-0.0083,-0.0053,-0.005,-0.0085,-0.0085,-0.0085,-0.0085,-0.0085,0,0.0372,0.0383,0.04,0.0407,0.0423,0.0417,0.0427,0.0414,0.0396,0.0391,0.0342,0.0315,0.0224,0.0148,0.0076,-0.0031,-0.0032,-0.0091,-0.011,-0.0041,-0.0036,-0.0059,-0.0055,-0.0089,-0.0088,-0.0087,-0.0086,0,0.0373,0.0387,0.0406,0.0422,0.043,0.044,0.0455,0.0458,0.0439,0.0427,0.0416,0.0341,0.0242,0.014,0.0016,-0.0041,-0.0139,-0.0177,-0.0112,-0.0124,-0.0181,-0.0174,-0.0264,-0.0265,-0.0266,-0.0267,-0.0267,0,0.0372,0.0386,0.0421,0.0437,0.0447,0.0466,0.048,0.0478,0.0483,0.0443,0.0435,0.0338,0.0277,0.0093,-0.0015,-0.0173,-0.0185,-0.0243,-0.0199,-0.019,-0.02,-0.0191,-0.0183,-0.0269,-0.0269,-0.027,-0.027,0,0.0367,0.0386,0.0405,0.0445,0.047,0.0496,0.0517,0.0523,0.0516,0.0503,0.0449,0.0349,0.0228,0.0091,-0.004,-0.0146,-0.0206,-0.0254,-0.0252,-0.0212,-0.0198,-0.0205,-0.0195,-0.0274,-0.0273,-0.0273,-0.0272,0,0.036,0.0374,0.0409,0.044,0.048,0.0509,0.0524,0.0528,0.053,0.0495,0.0474,0.0349,0.0278,0.0102,-0.0014,-0.0127,-0.0146,-0.0167,-0.0169,-0.0167,-0.0102,-0.0068,-0.013,0,0,0,0,0,0.0342,0.0361,0.0398,0.0435,0.0481,0.0506,0.0538,0.0549,0.0548,0.0519,0.05,0.0392,0.021,0.0128,0.0014,-0.0042,-0.0174,-0.018,-0.0201,-0.0294,-0.029,-0.023,0,0,0,0,0,0,0.0326,0.0361,0.0389,0.0429,0.0459,0.0506,0.0531,0.0535,0.0521,0.0506,0.0414,0.0369,0.0193,0.0278,0.0014,-0.0023,-0.0052,-0.0264,-0.0266,-0.0296,-0.0292,-0.0289,-0.0226,0,0,0,0,0]}]]